[[{"header":{"parameterUnit":"m.s-1","parameterCategory":1,"la1":30.2991,"la2":30.254,"lo1":-89.0895,"lo2":-89.0444,"dy":0.0017,"dx":0.0017,"nx":28,"ny":28,"refTime":"2024-10-11T21:00:00:Z","depth":0,"parameterNumber":2,"parameterNumberName":"U-component_of_WINDS"},"data":[0,0,0,0,0,0,0,0,0,0,0,0,0,0,0,0,0,0,0,0,0,0,0,0,0,0,0,0,0,0,0,0,0,0,0,0,0,0,0,0,0,0,0,0,0,0,0,0,0,0,0,0,0,0,0,0,0,0,-2.123,-2.1232,0,-2.1384,-2.1385,-2.1387,-2.1394,-2.1393,-2.1391,-2.1389,-2.1549,-2.1554,-2.156,0,0,0,0,0,0,0,0,0,0,0,0,0,-2.0948,-2.0953,-2.123,-2.1232,-2.1234,-2.1383,-2.1385,-2.1388,-2.1395,-2.1393,-2.139,-2.1388,-2.1547,-2.1554,-2.1561,0,0,0,0,0,0,0,0,0,0,0,0,0,-2.1083,-2.0954,-2.123,-2.1256,-2.1259,-2.1383,-2.1385,-2.1388,-2.1395,-2.1393,-2.139,-2.1387,-2.1544,-2.1553,-2.1562,-2.167,0,0,-2.1589,-2.1593,0,0,0,0,0,0,0,0,-2.1075,-2.1093,-2.125,-2.1254,-2.1259,-2.1367,-2.1344,-2.1483,-2.1396,-2.1344,-2.1389,-2.1386,-2.1491,-2.1504,-2.1538,-2.1678,-2.1685,-2.159,-2.1595,-2.1599,-2.1601,0,0,0,0,0,0,0,-2.1066,-2.1086,-2.1291,-2.1252,-2.1257,-2.1261,-2.1277,-2.1371,-2.143,-2.1348,-2.1349,-2.1367,-2.1492,-2.153,-2.1542,-2.1687,-2.1589,-2.1597,-2.1603,-2.1606,-2.1927,-2.193,0,0,0,0,0,0,-2.1051,-2.1079,-2.1286,-2.1295,-2.1158,-2.1268,-2.1286,-2.1335,-2.1429,-2.1441,-2.1369,-2.1367,-2.1516,-2.1532,-2.1548,-2.1683,-2.1599,-2.1607,-2.1612,-2.1923,-2.1927,-2.1931,0,0,0,0,0,0,-2.1045,-2.1069,-2.128,-2.1187,-2.1214,-2.1276,-2.1331,-2.1339,-2.1377,-2.1445,-2.1456,-2.1396,-2.1514,-2.1535,-2.164,-2.1688,-2.1611,-2.1619,-2.192,-2.1925,-2.1929,-2.1952,0,0,0,0,0,0,-2.1036,-2.1067,-2.1108,-2.1188,-2.1219,-2.1368,-2.1334,-2.1344,-2.1392,-2.139,-2.1473,-2.1485,-2.1514,-2.1627,-2.1649,-2.1699,-2.1626,-2.1916,-2.1922,-2.1927,-2.1947,-2.1957,-2.1965,0,0,0,0,0,-2.1026,-2.1108,-2.111,-2.1135,-2.1271,-2.1371,-2.1389,-2.142,-2.1396,-2.1438,-2.1483,-2.1482,-2.168,-2.1638,-2.1663,-2.1716,-2.1913,-2.192,-2.1927,-2.1943,-2.1955,-2.1965,0,0,0,0,0,0,-2.1031,-2.1119,-2.1122,-2.1232,-2.1294,-2.1372,-2.1426,-2.1432,-2.1503,-2.1498,-2.1535,-2.1554,-2.1658,-2.1698,-2.165,-2.1828,-2.1794,-2.1806,-2.1797,-2.1809,-2.1818,-2.1806,-2.1633,0,0,0,0,0,-2.1045,-2.1118,-2.1191,-2.1281,-2.1312,-2.1364,-2.1409,-2.1428,-2.1494,-2.152,-2.1572,-2.1637,-2.1715,-2.1764,-2.1839,-2.1954,-2.1973,-2.2003,-2.2012,-2.2019,-2.2029,-2.2095,-2.211,-2.1954,-2.1954,-2.1954,0,0,-2.1075,-2.1132,-2.1175,-2.1284,-2.1334,-2.141,-2.1386,-2.1467,-2.1524,-2.1533,-2.1635,-2.1676,-2.1751,-2.1862,-2.1914,-2.1899,-2.2077,-2.2028,-2.2033,-2.204,-2.2104,-2.2118,-2.2131,-2.1959,-2.1958,-2.1957,0,0,-2.1167,-2.1217,-2.1298,-2.135,-2.1426,-2.1461,-2.148,-2.1559,-2.1586,-2.169,-2.1699,-2.1768,-2.1899,-2.1953,-2.1998,-2.2114,-2.2117,-2.2138,-2.2184,-2.2248,-2.226,-2.2271,-2.2313,-2.2328,-2.2148,-2.2148,-2.2148,0,-2.1193,-2.1307,-2.1339,-2.142,-2.1469,-2.1481,-2.1564,-2.1613,-2.1711,-2.1745,-2.1726,-2.1893,-2.1945,-2.2069,-2.2098,-2.2133,-2.2158,-2.2127,-2.2256,-2.2267,-2.2278,-2.2318,-2.2334,-2.215,-2.2149,-2.2149,-2.2149,0,-2.1337,-2.1415,-2.1472,-2.1566,-2.1621,-2.1703,-2.1749,-2.1801,-2.1817,-2.1853,-2.196,-2.2023,-2.2111,-2.2142,-2.2158,-2.227,-2.2258,-2.2248,-2.2214,-2.2294,-2.2333,-2.2349,-2.2153,-2.2152,-2.2151,-2.2151,0,0,-2.1433,-2.1546,-2.1566,-2.161,-2.1697,-2.1759,-2.1844,-2.193,-2.1974,-2.2042,-2.2114,-2.2227,-2.2218,-2.2269,-2.2291,-2.2347,-2.2436,-2.233,-2.2332,-2.2347,-2.2565,-2.2572,-2.259,-2.2439,-2.2442,-2.2445,-2.2559,0,-2.1535,-2.1683,-2.1716,-2.1844,-2.1918,-2.1933,-2.2006,-2.2069,-2.2106,-2.2176,-2.2218,-2.2297,-2.2279,-2.231,-2.2367,-2.2413,-2.248,-2.2406,-2.2508,-2.2511,-2.2487,-2.261,-2.2617,-2.2721,-2.2574,-2.2577,-2.2579,0,-2.1672,-2.1744,-2.1879,-2.1958,-2.1991,-2.2056,-2.2139,-2.2205,-2.2277,-2.2301,-2.2359,-2.2376,-2.2466,-2.2429,-2.2554,-2.2503,-2.2547,-2.2577,-2.2582,-2.2592,-2.2549,-2.2623,-2.2755,-2.2771,-2.2603,-2.2601,-2.2599,0,-2.173,-2.186,-2.1958,-2.1995,-2.209,-2.2136,-2.2178,-2.2248,-2.2298,-2.2371,-2.2405,-2.2488,-2.2533,-2.2598,-2.2638,-2.2607,-2.2761,-2.2727,-2.2784,-2.2783,-2.2814,-2.2811,-2.2955,-2.2844,-2.2843,-2.2843,-2.2843,0,-2.1839,-2.1921,-2.1985,-2.2045,-2.2139,-2.2178,-2.2269,-2.2312,-2.2374,-2.2444,-2.2463,-2.2528,-2.2578,-2.2651,-2.2683,-2.2782,-2.2803,-2.2826,-2.2833,-2.2823,-2.2821,-2.2852,-2.2846,-2.2847,-2.2846,-2.2845,-2.2845,0,-2.1918,-2.1964,-2.2072,-2.2154,-2.2177,-2.2242,-2.2313,-2.2373,-2.2413,-2.2501,-2.2524,-2.2586,-2.2674,-2.272,-2.283,-2.2852,-2.2963,-2.2967,-2.2938,-2.2941,-2.2996,-2.299,-2.3164,-2.3189,-2.3061,-2.3062,-2.3063,0,-2.1984,-2.2048,-2.2137,-2.2185,-2.2228,-2.2305,-2.2357,-2.2399,-2.2453,-2.2542,-2.2592,-2.268,-2.2753,-2.2892,-2.2947,-2.3032,-2.3038,-2.3093,-2.305,-2.304,-2.3039,-2.3034,-2.3041,-2.31,-2.3101,-2.3102,-2.3103,0,-2.2097,-2.2117,-2.2191,-2.2274,-2.2335,-2.2402,-2.2469,-2.2508,-2.2561,-2.2621,-2.271,-2.2766,-2.2879,-2.2967,-2.3056,-2.3101,-2.3112,-2.3116,-2.3134,-2.3124,-2.3105,-2.3117,-2.2958,-2.3112,-2.3111,-2.311,-2.311,-2.3109,-2.2172,-2.223,-2.2302,-2.2384,-2.2439,-2.2502,-2.2562,-2.261,-2.2685,-2.2779,-2.28,-2.2895,-2.2969,-2.309,-2.3138,-2.3214,-2.3203,-2.3228,-2.3235,-2.324,-2.3242,-2.3094,-2.323,-2.323,-2.323,-2.323,-2.323,0,-2.2285,-2.2333,-2.2409,-2.2502,-2.2567,-2.2571,-2.2646,-2.2701,-2.2784,-2.2851,-2.2923,-2.3027,-2.3114,-2.3177,-2.3265,-2.3314,-2.3321,-2.3336,-2.3332,-2.3343,-2.3247,-2.3223,-2.3329,-2.3329,-2.3329,-2.3329,-2.3329,-2.3329,-2.2352,-2.2451,-2.248,-2.2607,-2.2655,-2.2748,-2.279,-2.2849,-2.2903,-2.3018,-2.309,-2.3131,-2.3198,-2.3292,-2.3372,-2.3389,-2.342,-2.3435,-2.3452,-2.336,-2.335,-2.3339,-2.3317,-2.3441,-2.3441,-2.3542,-2.3542,-2.3543]},{"header":{"parameterUnit":"m.s-1","parameterCategory":1,"la1":30.2991,"la2":30.254,"lo1":-89.0895,"lo2":-89.0444,"dy":0.0017,"dx":0.0017,"nx":28,"ny":28,"refTime":"2024-10-11T21:00:00:Z","depth":0,"parameterNumber":3,"parameterNumberName":"V-component_of_WINDS"},"data":[0,0,0,0,0,0,0,0,0,0,0,0,0,0,0,0,0,0,0,0,0,0,0,0,0,0,0,0,0,0,0,0,0,0,0,0,0,0,0,0,0,0,0,0,0,0,0,0,0,0,0,0,0,0,0,0,0,0,-0.8817,-0.8817,0,-0.8891,-0.8892,-0.8893,-0.894,-0.894,-0.894,-0.8941,-0.9013,-0.9015,-0.9017,0,0,0,0,0,0,0,0,0,0,0,0,0,-0.8711,-0.8713,-0.8816,-0.8817,-0.8818,-0.8891,-0.8892,-0.8893,-0.894,-0.894,-0.894,-0.8941,-0.9013,-0.9015,-0.9017,0,0,0,0,0,0,0,0,0,0,0,0,0,-0.8768,-0.8713,-0.8816,-0.885,-0.8854,-0.8891,-0.8892,-0.8893,-0.894,-0.894,-0.8941,-0.8941,-0.9012,-0.9015,-0.9017,-0.9025,0,0,-0.9025,-0.9026,0,0,0,0,0,0,0,0,-0.8765,-0.8772,-0.8844,-0.8848,-0.8853,-0.8907,-0.8882,-0.8937,-0.894,-0.8907,-0.8941,-0.8941,-0.8977,-0.8983,-0.8996,-0.9028,-0.9031,-0.9025,-0.9027,-0.9028,-0.9029,0,0,0,0,0,0,0,-0.8761,-0.8769,-0.8846,-0.8845,-0.885,-0.8861,-0.887,-0.8892,-0.8939,-0.891,-0.8914,-0.8922,-0.898,-0.8993,-0.8998,-0.9032,-0.9025,-0.9027,-0.9029,-0.903,-0.9075,-0.9074,0,0,0,0,0,0,-0.8752,-0.8766,-0.8844,-0.8848,-0.8809,-0.8863,-0.8872,-0.8889,-0.8939,-0.8947,-0.8922,-0.8924,-0.8989,-0.8995,-0.9001,-0.9013,-0.9028,-0.903,-0.9032,-0.9075,-0.9075,-0.9074,0,0,0,0,0,0,-0.875,-0.8759,-0.8841,-0.8808,-0.8819,-0.8864,-0.8882,-0.889,-0.8904,-0.8948,-0.8956,-0.8927,-0.8989,-0.8997,-0.9019,-0.9016,-0.9031,-0.9034,-0.9075,-0.9075,-0.9074,-0.9038,0,0,0,0,0,0,-0.8746,-0.8757,-0.8761,-0.8808,-0.8821,-0.8858,-0.8882,-0.8891,-0.8909,-0.8912,-0.8955,-0.8963,-0.899,-0.9015,-0.9021,-0.902,-0.9036,-0.9076,-0.9075,-0.9075,-0.9039,-0.9036,-0.9033,0,0,0,0,0,-0.8742,-0.8747,-0.8761,-0.877,-0.8827,-0.8858,-0.8865,-0.8898,-0.8908,-0.8912,-0.894,-0.8961,-0.9015,-0.9016,-0.9024,-0.9024,-0.9076,-0.9075,-0.9075,-0.9041,-0.9037,-0.9033,0,0,0,0,0,0,-0.8698,-0.8754,-0.877,-0.879,-0.8819,-0.8866,-0.8872,-0.8893,-0.8919,-0.8921,-0.8959,-0.8969,-0.8986,-0.9007,-0.9007,-0.9034,-0.9048,-0.9049,-0.902,-0.9016,-0.9013,-0.9008,-0.9038,0,0,0,0,0,-0.8691,-0.8713,-0.876,-0.8773,-0.8787,-0.8827,-0.8841,-0.8864,-0.8895,-0.8907,-0.8937,-0.8966,-0.8989,-0.9004,-0.9028,-0.9042,-0.9052,-0.9046,-0.9043,-0.904,-0.904,-0.905,-0.9048,-0.9072,-0.9072,-0.9072,0,0,-0.8676,-0.8709,-0.872,-0.8765,-0.879,-0.8811,-0.8837,-0.8857,-0.8873,-0.891,-0.8933,-0.8956,-0.899,-0.9008,-0.9018,-0.9026,-0.9036,-0.9039,-0.9037,-0.9039,-0.9049,-0.9047,-0.9045,-0.9071,-0.9071,-0.9071,0,0,-0.8659,-0.8686,-0.8701,-0.8725,-0.8764,-0.8791,-0.8794,-0.8838,-0.8855,-0.8878,-0.8907,-0.8925,-0.8965,-0.8988,-0.9005,-0.8998,-0.9018,-0.9004,-0.8988,-0.8997,-0.8996,-0.8994,-0.8992,-0.899,-0.9004,-0.9004,-0.9004,0,-0.8635,-0.8669,-0.8705,-0.8725,-0.8743,-0.8779,-0.8794,-0.8816,-0.8859,-0.8871,-0.888,-0.8931,-0.8956,-0.8981,-0.8979,-0.8991,-0.8996,-0.9,-0.8993,-0.8992,-0.8991,-0.8989,-0.8988,-0.9003,-0.9003,-0.9003,-0.9003,0,-0.8638,-0.866,-0.8667,-0.871,-0.8729,-0.8746,-0.8784,-0.8799,-0.882,-0.8846,-0.8869,-0.8901,-0.8932,-0.894,-0.896,-0.8967,-0.8971,-0.8986,-0.9001,-0.8986,-0.8985,-0.8985,-0.9,-0.9001,-0.9001,-0.9002,0,0,-0.8595,-0.8658,-0.866,-0.868,-0.8725,-0.8743,-0.8761,-0.8793,-0.8806,-0.8834,-0.885,-0.8883,-0.8897,-0.8917,-0.894,-0.8947,-0.894,-0.8961,-0.8963,-0.8957,-0.895,-0.8939,-0.8938,-0.8953,-0.8953,-0.8953,-0.8947,0,-0.8585,-0.8622,-0.8655,-0.8678,-0.87,-0.8734,-0.875,-0.8779,-0.8803,-0.8824,-0.885,-0.8873,-0.889,-0.8902,-0.8911,-0.8939,-0.8939,-0.894,-0.8968,-0.8969,-0.8959,-0.8937,-0.8926,-0.8919,-0.8947,-0.8947,-0.8947,0,-0.8579,-0.8608,-0.8634,-0.8678,-0.8688,-0.8702,-0.8734,-0.8754,-0.8787,-0.8804,-0.8826,-0.885,-0.887,-0.8883,-0.8911,-0.891,-0.8924,-0.8939,-0.8939,-0.8944,-0.8957,-0.8941,-0.8917,-0.8916,-0.8947,-0.8947,-0.8947,0,-0.8546,-0.8591,-0.8613,-0.8629,-0.868,-0.8689,-0.871,-0.8744,-0.8761,-0.8789,-0.8801,-0.8829,-0.8845,-0.8867,-0.8898,-0.8904,-0.8923,-0.8938,-0.8937,-0.8936,-0.8939,-0.8939,-0.8917,-0.8947,-0.8947,-0.8947,-0.8947,0,-0.8533,-0.8547,-0.8599,-0.8613,-0.863,-0.8667,-0.8683,-0.8707,-0.8737,-0.8755,-0.8786,-0.8802,-0.8842,-0.8863,-0.8887,-0.8906,-0.8913,-0.8927,-0.8933,-0.8925,-0.8923,-0.8934,-0.8936,-0.8947,-0.8947,-0.8947,-0.8947,0,-0.8499,-0.8534,-0.856,-0.8607,-0.8619,-0.863,-0.8669,-0.8683,-0.8709,-0.8731,-0.8739,-0.8779,-0.8805,-0.8839,-0.8874,-0.8891,-0.8907,-0.8917,-0.8897,-0.8901,-0.8898,-0.8898,-0.8884,-0.8884,-0.8912,-0.8912,-0.8911,0,-0.8488,-0.8501,-0.8549,-0.8564,-0.8585,-0.8608,-0.8627,-0.8663,-0.8681,-0.872,-0.8729,-0.8757,-0.8782,-0.8821,-0.8853,-0.8881,-0.8892,-0.8885,-0.8896,-0.8887,-0.8892,-0.8891,-0.8893,-0.8882,-0.8881,-0.8881,-0.8881,0,-0.8465,-0.8482,-0.8508,-0.854,-0.8562,-0.8588,-0.8616,-0.8626,-0.8668,-0.8686,-0.8714,-0.8733,-0.8771,-0.8798,-0.883,-0.8851,-0.8873,-0.8877,-0.8878,-0.887,-0.8858,-0.8865,-0.889,-0.8877,-0.8877,-0.8878,-0.8878,-0.8878,-0.8443,-0.8456,-0.8493,-0.852,-0.8545,-0.8571,-0.8586,-0.8615,-0.8639,-0.8673,-0.8693,-0.872,-0.8753,-0.8798,-0.8818,-0.8839,-0.8847,-0.8849,-0.8849,-0.8849,-0.8847,-0.8854,-0.8844,-0.8845,-0.8845,-0.8845,-0.8845,0,-0.8423,-0.8448,-0.8473,-0.8512,-0.8534,-0.8553,-0.8585,-0.8602,-0.8625,-0.8655,-0.8679,-0.871,-0.8737,-0.8772,-0.8801,-0.8811,-0.8822,-0.8817,-0.8817,-0.8822,-0.8837,-0.8834,-0.8808,-0.8808,-0.8808,-0.8808,-0.8808,-0.8808,-0.8415,-0.8438,-0.8459,-0.8495,-0.852,-0.8548,-0.8564,-0.8587,-0.8611,-0.8645,-0.8669,-0.8691,-0.8722,-0.8754,-0.878,-0.8789,-0.8798,-0.8791,-0.8803,-0.8817,-0.8821,-0.8824,-0.882,-0.8793,-0.8793,-0.8786,-0.8786,-0.8786]}]]